Date String (YYYY-MM-DD hh:mm:ss) UTC,Instrument flags,Ambient pressure (hPa),Sample flow (lpm),Bypass flow (lpm),Sample temperature (°C),Ambient temperature (°C),ASC tube jacket temperature (°C),LED temperature (°C),Box temperature (°C),Sample RH (%),Span deviation,Mass concentration (μg/m³),Mass concentration (μg/m³),Mass concentration (μg/m³)
DateTimeUTC,F1_M11,P_M11,Q1_M11,Q2_M11,T1_M11,T2_M11,T3_M11,T4_M11,T5_M11,U1_M11,ZSPAN_M11,X0_M11,X2_M11,X1_M11
2022-06-17 15:00:00,,0827.8,4.99,0.00,33.1,27.9,00.0,40.8,32.7,34.6,0000.0,0017.78,0007.38,0004.34
2022-06-17 15:01:00,,0827.9,5.01,0.00,33.1,28.1,00.0,40.8,32.7,34.5,0000.0,0017.79,0007.37,0004.36
2022-06-17 15:02:00,,0827.9,4.99,0.00,33.1,28.2,00.0,40.8,32.7,34.6,0000.0,0017.56,0007.34,0004.40
2022-06-17 15:03:00,,0827.9,4.99,0.00,33.0,28.4,00.0,40.8,32.7,34.7,0000.0,0017.57,0007.32,0004.43
2022-06-17 15:04:00,,0827.9,4.99,0.00,32.9,28.5,00.0,40.8,32.7,34.8,0000.0,0017.70,0007.38,0004.45
2022-06-17 15:05:00,,0827.9,5.00,0.00,32.9,28.7,00.0,40.8,32.7,35.0,0000.0,0017.63,0007.38,0004.47
2022-06-17 15:06:00,,0827.9,5.02,0.00,32.9,28.8,00.0,40.8,32.7,35.0,0000.0,0017.43,0007.34,0004.50
2022-06-17 15:07:00,,0827.9,4.99,0.00,33.0,28.9,00.0,40.8,32.9,34.7,0000.0,0017.52,0007.39,0004.53
2022-06-17 15:08:00,,0827.9,5.00,0.00,33.0,28.5,00.0,40.8,32.8,34.5,0000.0,0017.88,0007.52,0004.57
2022-06-17 15:09:00,,0827.8,5.01,0.00,32.9,27.9,00.0,40.7,32.6,34.7,0000.0,0017.42,0007.50,0004.61
2022-06-17 15:10:00,,0827.9,4.97,0.00,32.8,27.6,00.0,40.7,32.5,34.9,0000.0,0016.94,0007.45,0004.65
2022-06-17 15:11:00,,0827.8,5.01,0.00,32.7,27.6,00.0,40.7,32.4,35.2,0000.0,0017.41,0007.51,0004.69
2022-06-17 15:12:00,,0827.8,5.00,0.00,32.8,27.7,00.0,40.7,32.5,35.1,0000.0,0018.93,0007.55,0004.73
2022-06-17 15:13:00,,0827.9,4.99,0.00,33.0,27.8,00.0,40.6,32.6,34.6,0000.0,0019.96,0007.68,0004.78
2022-06-17 15:14:00,,0827.9,5.01,0.00,33.0,28.0,00.0,40.6,32.6,34.4,0000.0,0020.62,0007.80,0004.81
2022-06-17 15:15:00,,0827.8,5.00,0.00,33.0,28.2,00.0,40.6,32.6,34.4,0000.0,0021.35,0007.89,0004.85
2022-06-17 15:16:00,,0827.9,4.99,0.00,33.0,28.3,00.0,40.7,32.6,34.4,0000.0,0021.77,0007.96,0004.90
2022-06-17 15:17:00,,0827.9,4.99,0.00,33.0,28.5,00.0,40.7,32.6,34.5,0000.0,0021.85,0008.04,0004.93
2022-06-17 15:18:00,,0827.9,5.01,0.00,32.9,28.6,00.0,40.7,32.6,34.7,0000.0,0022.00,0008.04,0004.96
2022-06-17 15:19:00,,0827.9,5.00,0.00,32.8,28.7,00.0,40.7,32.6,34.9,0000.0,0022.23,0008.09,0004.99
2022-06-17 15:20:00,,0827.9,5.00,0.00,32.8,28.8,00.0,40.7,32.7,35.1,0000.0,0022.17,0008.14,0005.00
2022-06-17 15:21:00,,0828.0,5.01,0.00,32.9,28.4,00.0,40.7,32.7,35.0,0000.0,0022.14,0008.17,0005.01
2022-06-17 15:22:00,,0827.9,5.00,0.00,33.0,27.8,00.0,40.6,32.6,34.6,0000.0,0021.67,0008.14,0005.03
2022-06-17 15:23:00,,0827.9,5.01,0.00,33.0,27.6,00.0,40.6,32.5,34.4,0000.0,0020.41,0008.18,0005.06
2022-06-17 15:24:00,,0827.9,4.99,0.00,32.9,27.6,00.0,40.6,32.4,34.5,0000.0,0019.44,0008.13,0005.08
2022-06-17 15:25:00,,0828.0,5.00,0.00,32.7,27.7,00.0,40.6,32.4,34.8,0000.0,0019.49,0008.08,0005.09
2022-06-17 15:26:00,,0827.8,5.00,0.00,32.7,27.8,00.0,40.6,32.4,35.3,0000.0,0019.58,0008.01,0005.09
2022-06-17 15:27:00,,0827.9,5.00,0.00,32.8,28.0,00.0,40.6,32.6,35.2,0000.0,0019.12,0007.96,0005.08
2022-06-17 15:28:00,,0827.9,5.01,0.00,33.0,28.2,00.0,40.6,32.8,34.7,0000.0,0019.21,0007.95,0005.06
2022-06-17 15:29:00,,0827.9,4.99,0.00,33.2,28.4,00.0,40.6,32.8,34.3,0000.1,0019.23,0007.94,0005.03
2022-06-17 15:30:00,,0827.9,5.00,0.00,33.2,28.5,00.0,40.6,32.8,34.0,0000.8,0019.14,0007.86,0004.97
2022-06-17 15:31:00,,0827.9,5.01,0.00,33.2,28.6,00.0,40.7,32.8,34.0,0000.0,0019.31,0007.88,0004.92
2022-06-17 15:32:00,,0828.0,5.00,0.00,33.2,28.7,00.0,40.7,32.7,34.0,0000.0,0019.45,0007.88,0004.87
2022-06-17 15:33:00,,0827.9,4.99,0.00,33.1,28.2,00.0,40.7,32.6,34.1,0000.0,0019.90,0007.92,0004.82
2022-06-17 15:34:00,,0827.9,5.01,0.00,33.0,27.7,00.0,40.6,32.4,34.4,0000.0,0019.71,0007.90,0004.78
2022-06-17 15:35:00,,0827.9,5.01,0.00,32.8,27.5,00.0,40.6,32.4,34.7,0001.3,0019.67,0007.88,0004.74
2022-06-17 15:36:00,,0827.8,4.98,0.00,32.7,27.6,00.0,40.6,32.3,34.9,0000.3,0018.83,0007.86,0004.71
2022-06-17 15:37:00,,0827.9,5.01,0.00,32.6,27.7,00.0,40.6,32.3,35.2,0000.0,0017.75,0007.78,0004.67
2022-06-17 15:38:00,,0827.9,5.01,0.00,32.7,27.9,00.0,40.6,32.5,35.1,0000.0,0017.60,0007.72,0004.65
2022-06-17 15:39:00,,0827.8,4.99,0.00,32.9,28.1,00.0,40.6,32.6,34.6,0000.0,0017.32,0007.64,0004.65
2022-06-17 15:40:00,,0827.9,4.99,0.00,33.0,28.2,00.0,40.6,32.6,34.4,0000.5,0017.60,0007.70,0004.66
2022-06-17 15:41:00,,0827.9,5.00,0.00,33.0,28.4,00.0,40.6,32.6,34.4,0000.0,0017.70,0007.79,0004.70
2022-06-17 15:42:00,,0827.9,5.00,0.00,32.9,28.5,00.0,40.6,32.6,34.4,0000.5,0017.81,0007.80,0004.75
2022-06-17 15:43:00,,0827.9,5.01,0.00,32.9,28.7,00.0,40.6,32.6,34.5,0001.8,0018.49,0007.82,0004.78
2022-06-17 15:44:00,,0827.9,5.00,0.00,32.8,28.8,00.0,40.7,32.6,34.7,0002.0,0018.24,0007.78,0004.81
2022-06-17 15:45:00,,0827.9,4.99,0.00,32.8,28.4,00.0,40.6,32.6,35.0,0001.7,0018.84,0007.74,0004.83
2022-06-17 15:46:00,,0827.9,5.00,0.00,32.8,27.8,00.0,40.6,32.5,35.0,0001.5,0018.30,0007.71,0004.84
2022-06-17 15:47:00,,0827.9,4.99,0.00,32.9,27.6,00.0,40.5,32.6,34.8,0002.2,0018.74,0007.71,0004.85
2022-06-17 15:48:00,,0827.9,5.00,0.00,32.9,27.7,00.0,40.5,32.5,34.8,0003.0,0019.16,0007.82,0004.88
2022-06-17 15:49:00,,0827.9,5.00,0.00,32.8,27.8,00.0,40.5,32.5,34.9,0002.7,0020.13,0007.97,0004.92
2022-06-17 15:50:00,,0827.9,5.00,0.00,32.8,27.9,00.0,40.6,32.5,35.1,0001.3,0020.48,0008.07,0004.94
2022-06-17 15:51:00,,0827.9,4.99,0.00,32.8,28.1,00.0,40.6,32.5,35.0,0000.2,0020.00,0008.04,0004.96
2022-06-17 15:52:00,,0827.9,5.00,0.00,32.9,28.3,00.0,40.6,32.7,34.6,0000.0,0019.56,0007.89,0004.96
2022-06-17 15:53:00,,0827.9,5.01,0.00,33.0,28.4,00.0,40.6,32.7,34.6,0000.0,0019.55,0007.78,0004.95
2022-06-17 15:54:00,,0827.9,4.99,0.00,33.0,28.6,00.0,40.6,32.7,34.7,0000.0,0019.00,0007.74,0004.96
2022-06-17 15:55:00,,0827.9,5.00,0.00,32.9,28.5,00.0,40.6,32.6,34.7,0000.0,0019.01,0007.81,0004.97
2022-06-17 15:56:00,,0827.8,5.01,0.00,32.9,28.0,00.0,40.6,32.5,34.8,0000.0,0018.51,0007.81,0004.98
2022-06-17 15:57:00,,0827.8,4.99,0.00,32.7,27.5,00.0,40.5,32.3,34.9,0000.0,0019.44,0007.87,0005.00
2022-06-17 15:58:00,,0827.8,5.01,0.00,32.7,27.4,00.0,40.5,32.3,35.1,0000.0,0019.07,0007.93,0005.02
2022-06-17 15:59:00,,0827.8,5.00,0.00,32.7,27.5,00.0,40.5,32.4,35.2,0000.0,0018.86,0007.91,0005.01
